[[{"header":{"parameterUnit":"m.s-1","parameterCategory":1,"la1":30.2991,"la2":30.254,"lo1":-89.0895,"lo2":-89.0444,"dy":0.0017,"dx":0.0017,"nx":28,"ny":28,"refTime":"2024-02-12T09:00:00:Z","depth":0,"parameterNumber":2,"parameterNumberName":"U-component_of_WINDS"},"data":[0,0,0,0,0,0,0,0,0,0,0,0,0,0,0,0,0,0,0,0,0,0,0,0,0,0,0,0,0,0,0,0,0,0,0,0,0,0,0,0,0,0,0,0,0,0,0,0,0,0,0,0,0,0,0,0,0,0,9.1111,9.1113,0,9.127,9.1272,9.1274,9.119,9.1185,9.1181,9.1177,9.134,9.1348,9.1357,0,0,0,0,0,0,0,0,0,0,0,0,0,9.0737,9.0744,9.1111,9.1113,9.1115,9.127,9.1272,9.1274,9.119,9.1185,9.118,9.1175,9.1338,9.1347,9.1357,0,0,0,0,0,0,0,0,0,0,0,0,0,9.0898,9.0747,9.1111,9.1092,9.1092,9.1269,9.1272,9.1275,9.1191,9.1185,9.1179,9.1173,9.1334,9.1346,9.1359,9.1564,0,0,9.1397,9.1402,0,0,0,0,0,0,0,0,9.0889,9.0912,9.1093,9.1093,9.1094,9.1203,9.12,9.1372,9.1193,9.1154,9.1177,9.1169,9.13,9.1315,9.1359,9.1572,9.1579,9.1398,9.1406,9.1411,9.1415,0,0,0,0,0,0,0,9.0878,9.0905,9.1174,9.1095,9.1096,9.1076,9.1092,9.1232,9.1261,9.1156,9.1151,9.1171,9.1299,9.1347,9.1362,9.1581,9.1398,9.1409,9.1417,9.1421,9.1975,9.1982,0,0,0,0,0,0,9.0868,9.0896,9.1169,9.1179,9.0973,9.1088,9.1106,9.1175,9.1259,9.1266,9.1176,9.1166,9.1329,9.1348,9.1367,9.1616,9.1411,9.1423,9.143,9.1968,9.1976,9.1984,0,0,0,0,0,0,9.086,9.0893,9.1162,9.1036,9.1069,9.1101,9.1179,9.1181,9.1229,9.1274,9.1279,9.122,9.1324,9.135,9.1517,9.1621,9.1428,9.144,9.1959,9.197,9.198,9.2114,0,0,0,0,0,0,9.085,9.0891,9.0968,9.1038,9.1076,9.1309,9.1186,9.1189,9.1251,9.1239,9.1316,9.1323,9.1321,9.1499,9.1529,9.1634,9.1449,9.195,9.1964,9.1977,9.21,9.2128,9.2151,0,0,0,0,0,9.0837,9.0999,9.0973,9.1006,9.1174,9.1315,9.1336,9.1332,9.1259,9.1339,9.1368,9.132,9.1604,9.1516,9.155,9.1661,9.1943,9.196,9.1976,9.2089,9.2122,9.2151,0,0,0,0,0,0,9.094,9.1008,9.0979,9.1169,9.1237,9.13,9.14,9.1367,9.1457,9.1442,9.1433,9.1451,9.1625,9.1659,9.156,9.1866,9.1763,9.1786,9.1837,9.1869,9.1894,9.1883,9.146,0,0,0,0,0,9.0985,9.1093,9.1147,9.1309,9.1345,9.1367,9.1428,9.1419,9.1489,9.1517,9.1558,9.1628,9.1734,9.1803,9.1902,9.2105,9.2121,9.2197,9.2223,9.2244,9.2265,9.2377,9.2413,9.2037,9.2037,9.2037,0,0,9.1078,9.1129,9.1198,9.1331,9.1382,9.1497,9.1391,9.1515,9.16,9.1536,9.1697,9.173,9.1808,9.1994,9.2078,9.2028,9.2372,9.2264,9.2281,9.229,9.2398,9.2433,9.2465,9.2048,9.2046,9.2045,0,0,9.1308,9.1356,9.1498,9.1552,9.1632,9.1646,9.168,9.175,9.177,9.1931,9.1886,9.1987,9.2167,9.2226,9.2279,9.2534,9.2495,9.2566,9.27,9.281,9.284,9.2866,9.2959,9.2993,9.2587,9.2587,9.2588,0,9.1414,9.1583,9.1575,9.1704,9.1765,9.1712,9.1857,9.191,9.2019,9.2062,9.2004,9.2233,9.2281,9.2482,9.2544,9.2588,9.2629,9.2558,9.2836,9.2862,9.2887,9.2976,9.3011,9.2596,9.2595,9.2594,9.2593,0,9.1712,9.183,9.1935,9.2042,9.2115,9.2251,9.2265,9.2339,9.2325,9.2345,9.2512,9.2569,9.268,9.2726,9.2712,9.2927,9.2893,9.2836,9.2733,9.2931,9.3015,9.3048,9.2608,9.2605,9.2602,9.26,0,0,9.201,9.2112,9.2151,9.22,9.2286,9.2377,9.2512,9.2621,9.2687,9.2764,9.2878,9.3034,9.2982,9.3043,9.3035,9.3132,9.3334,9.3063,9.3065,9.3113,9.3576,9.362,9.3659,9.3308,9.3314,9.3319,9.3571,0,9.2247,9.2483,9.248,9.2699,9.281,9.2763,9.288,9.2946,9.297,9.3068,9.3094,9.3205,9.3128,9.3165,9.3258,9.3289,9.3427,9.3271,9.3415,9.3421,9.3399,9.3703,9.3749,9.3983,9.3603,9.3608,9.3612,0,9.2555,9.2643,9.2873,9.2945,9.2992,9.3097,9.3199,9.3293,9.3367,9.3378,9.3447,9.3425,9.3564,9.3457,9.3649,9.3543,9.3602,9.3627,9.3636,9.365,9.353,9.3727,9.4058,9.4094,9.3663,9.3659,9.3655,0,9.2752,9.2929,9.309,9.3133,9.322,9.3296,9.3336,9.3405,9.3471,9.356,9.3604,9.3707,9.3765,9.3846,9.3853,9.3774,9.4049,9.394,9.4063,9.4063,9.4124,9.412,9.447,9.4159,9.4158,9.4158,9.4157,0,9.3018,9.3162,9.318,9.328,9.344,9.3436,9.3595,9.3628,9.369,9.3796,9.3761,9.3861,9.3864,9.3968,9.3974,9.4134,9.416,9.4173,9.4174,9.4178,9.4177,9.4217,9.4202,9.4167,9.4165,9.4163,9.4162,0,9.3267,9.3285,9.3458,9.3527,9.3548,9.3663,9.3722,9.3818,9.3838,9.3973,9.4005,9.4038,9.4158,9.4173,9.4313,9.4318,9.4511,9.4493,9.4486,9.4484,9.4607,9.4596,9.4997,9.505,9.4702,9.4706,9.4708,0,9.3436,9.3546,9.3627,9.3696,9.374,9.3851,9.3919,9.392,9.3993,9.4088,9.4173,9.429,9.4383,9.4578,9.4615,9.4722,9.4708,9.4841,9.4724,9.4725,9.4713,9.4707,9.4719,9.4864,9.4868,9.4871,9.4874,0,9.3737,9.3741,9.384,9.3945,9.4027,9.4109,9.4186,9.4245,9.4256,9.434,9.4462,9.4535,9.4679,9.4796,9.4903,9.4945,9.4913,9.491,9.4945,9.4951,9.4943,9.4951,9.455,9.4901,9.4898,9.4896,9.4895,9.4894,9.3952,9.4049,9.4122,9.4235,9.4293,9.4366,9.4461,9.4494,9.4596,9.4713,9.4707,9.4844,9.4918,9.5058,9.5108,9.5215,9.5171,9.522,9.5233,9.5246,9.5259,9.4925,9.5234,9.5233,9.5232,9.5232,9.5231,0,9.4253,9.4298,9.4402,9.4512,9.4601,9.4562,9.4646,9.4724,9.4844,9.4916,9.5009,9.5152,9.5266,9.5312,9.5425,9.5502,9.549,9.5531,9.5527,9.5537,9.5291,9.5251,9.5539,9.5539,9.5539,9.5539,9.5539,9.5539,9.442,9.4582,9.4595,9.4786,9.4829,9.4963,9.5014,9.5083,9.514,9.5301,9.5396,9.5425,9.5488,9.5605,9.5708,9.5719,9.5763,9.5812,9.5816,9.5585,9.5554,9.5525,9.5487,9.5821,9.5821,9.6054,9.6056,9.6058]},{"header":{"parameterUnit":"m.s-1","parameterCategory":1,"la1":30.2991,"la2":30.254,"lo1":-89.0895,"lo2":-89.0444,"dy":0.0017,"dx":0.0017,"nx":28,"ny":28,"refTime":"2024-02-12T09:00:00:Z","depth":0,"parameterNumber":3,"parameterNumberName":"V-component_of_WINDS"},"data":[0,0,0,0,0,0,0,0,0,0,0,0,0,0,0,0,0,0,0,0,0,0,0,0,0,0,0,0,0,0,0,0,0,0,0,0,0,0,0,0,0,0,0,0,0,0,0,0,0,0,0,0,0,0,0,0,0,0,-4.0228,-4.0229,0,-4.0277,-4.0277,-4.0278,-4.0271,-4.027,-4.027,-4.0269,-4.0317,-4.0319,-4.0321,0,0,0,0,0,0,0,0,0,0,0,0,0,-4.0129,-4.013,-4.0228,-4.0229,-4.0229,-4.0277,-4.0277,-4.0278,-4.0271,-4.027,-4.0269,-4.0269,-4.0316,-4.0318,-4.0321,0,0,0,0,0,0,0,0,0,0,0,0,0,-4.0174,-4.0131,-4.0228,-4.0232,-4.0233,-4.0276,-4.0277,-4.0278,-4.0272,-4.027,-4.0269,-4.0268,-4.0315,-4.0318,-4.0321,-4.0363,0,0,-4.033,-4.0332,0,0,0,0,0,0,0,0,-4.0171,-4.0178,-4.0231,-4.0232,-4.0233,-4.0267,-4.026,-4.0307,-4.0272,-4.0257,-4.0269,-4.0268,-4.0301,-4.0305,-4.0317,-4.0366,-4.0368,-4.0331,-4.0332,-4.0334,-4.0335,0,0,0,0,0,0,0,-4.0168,-4.0175,-4.0247,-4.0231,-4.0233,-4.0231,-4.0236,-4.0269,-4.0285,-4.0258,-4.0258,-4.0264,-4.0301,-4.0314,-4.0318,-4.0368,-4.033,-4.0333,-4.0335,-4.0336,-4.0455,-4.0457,0,0,0,0,0,0,-4.0164,-4.0173,-4.0246,-4.0249,-4.0198,-4.0234,-4.0239,-4.0257,-4.0284,-4.0288,-4.0265,-4.0263,-4.0309,-4.0314,-4.0319,-4.0371,-4.0334,-4.0336,-4.0338,-4.0454,-4.0456,-4.0457,0,0,0,0,0,0,-4.0162,-4.0171,-4.0244,-4.0211,-4.022,-4.0237,-4.0256,-4.0259,-4.0271,-4.0289,-4.0292,-4.0274,-4.0308,-4.0315,-4.0353,-4.0372,-4.0338,-4.0341,-4.0452,-4.0454,-4.0456,-4.0474,0,0,0,0,0,0,-4.0159,-4.017,-4.0186,-4.0211,-4.0222,-4.0277,-4.0258,-4.026,-4.0277,-4.0275,-4.0299,-4.0302,-4.0308,-4.0348,-4.0356,-4.0376,-4.0343,-4.0451,-4.0453,-4.0456,-4.0472,-4.0476,-4.048,0,0,0,0,0,-4.0156,-4.0189,-4.0187,-4.0196,-4.0243,-4.0278,-4.0284,-4.029,-4.0278,-4.0295,-4.0307,-4.0302,-4.0369,-4.0352,-4.0361,-4.0382,-4.0449,-4.0453,-4.0456,-4.047,-4.0475,-4.048,0,0,0,0,0,0,-4.0165,-4.0192,-4.0191,-4.0233,-4.0253,-4.0277,-4.0297,-4.0296,-4.0319,-4.0317,-4.0324,-4.0329,-4.0367,-4.0378,-4.0359,-4.0425,-4.0408,-4.0413,-4.0416,-4.0421,-4.0425,-4.0421,-4.0345,0,0,0,0,0,-4.0172,-4.0199,-4.0221,-4.0256,-4.0267,-4.0281,-4.0296,-4.03,-4.032,-4.0329,-4.0343,-4.0363,-4.0389,-4.0406,-4.0431,-4.0474,-4.0479,-4.0493,-4.0497,-4.05,-4.0504,-4.0528,-4.0534,-4.0467,-4.0467,-4.0467,0,0,-4.0187,-4.0205,-4.0221,-4.0259,-4.0275,-4.0302,-4.0288,-4.0317,-4.0337,-4.0333,-4.0369,-4.0381,-4.0404,-4.0445,-4.0463,-4.0455,-4.0524,-4.0504,-4.0507,-4.0509,-4.0531,-4.0538,-4.0543,-4.0469,-4.0469,-4.0468,0,0,-4.0227,-4.0244,-4.0275,-4.0292,-4.0317,-4.0326,-4.0334,-4.0358,-4.0366,-4.0403,-4.0401,-4.0425,-4.0469,-4.0486,-4.05,-4.0548,-4.0544,-4.0556,-4.0578,-4.0601,-4.0606,-4.0611,-4.0628,-4.0634,-4.056,-4.056,-4.056,0,-4.0242,-4.0283,-4.0291,-4.0321,-4.0338,-4.0337,-4.0368,-4.0384,-4.0415,-4.0427,-4.0418,-4.0474,-4.0489,-4.0534,-4.0546,-4.0557,-4.0566,-4.0553,-4.0605,-4.061,-4.0614,-4.063,-4.0637,-4.0561,-4.0561,-4.0561,-4.0561,0,-4.03,-4.0329,-4.0351,-4.0383,-4.0402,-4.0432,-4.0444,-4.0463,-4.0465,-4.0475,-4.0513,-4.0532,-4.0561,-4.0572,-4.0574,-4.0617,-4.0611,-4.0604,-4.0586,-4.0622,-4.0637,-4.0643,-4.0563,-4.0563,-4.0562,-4.0562,0,0,-4.0346,-4.0383,-4.039,-4.0405,-4.0433,-4.0455,-4.0486,-4.0515,-4.0531,-4.0553,-4.0579,-4.0617,-4.0611,-4.0627,-4.0631,-4.0651,-4.0688,-4.0641,-4.0642,-4.0649,-4.0736,-4.0741,-4.0748,-4.0687,-4.0688,-4.0689,-4.0734,0,-4.0388,-4.0443,-4.0452,-4.05,-4.0526,-4.0527,-4.0553,-4.0574,-4.0584,-4.0608,-4.062,-4.0647,-4.0637,-4.0647,-4.0667,-4.0679,-4.0706,-4.0676,-4.0709,-4.0711,-4.0703,-4.0756,-4.0761,-4.0802,-4.074,-4.0741,-4.0742,0,-4.0445,-4.047,-4.052,-4.0546,-4.0557,-4.0581,-4.0609,-4.0632,-4.0655,-4.0662,-4.0681,-4.0683,-4.0714,-4.0697,-4.0741,-4.0721,-4.0735,-4.0743,-4.0745,-4.0747,-4.0727,-4.0759,-4.0816,-4.0822,-4.0751,-4.0751,-4.075,0,-4.0472,-4.0518,-4.0555,-4.0567,-4.0598,-4.0615,-4.0629,-4.0651,-4.0668,-4.0692,-4.0703,-4.073,-4.0745,-4.0766,-4.0775,-4.0762,-4.0818,-4.0802,-4.0824,-4.0824,-4.0834,-4.0833,-4.0894,-4.0846,-4.0845,-4.0845,-4.0845,0,-4.0518,-4.0549,-4.0568,-4.059,-4.0625,-4.0635,-4.0669,-4.0682,-4.0702,-4.0726,-4.0728,-4.0751,-4.0763,-4.0788,-4.0795,-4.083,-4.0837,-4.0842,-4.0844,-4.0842,-4.0841,-4.085,-4.0847,-4.0847,-4.0847,-4.0846,-4.0846,0,-4.0554,-4.0568,-4.0608,-4.0634,-4.0642,-4.0666,-4.0688,-4.071,-4.0721,-4.0752,-4.076,-4.0778,-4.0807,-4.0819,-4.0855,-4.086,-4.0899,-4.0899,-4.0892,-4.0892,-4.0913,-4.091,-4.098,-4.099,-4.0936,-4.0937,-4.0937,0,-4.0582,-4.0606,-4.0635,-4.0652,-4.0667,-4.0694,-4.0712,-4.0723,-4.0741,-4.077,-4.0788,-4.0818,-4.0842,-4.0889,-4.0904,-4.0931,-4.0931,-4.0954,-4.0935,-4.0932,-4.093,-4.0929,-4.0931,-4.0957,-4.0957,-4.0958,-4.0958,0,-4.0629,-4.0636,-4.0661,-4.069,-4.0712,-4.0735,-4.0757,-4.0771,-4.0786,-4.0806,-4.0837,-4.0855,-4.0893,-4.0922,-4.095,-4.0963,-4.0963,-4.0964,-4.0971,-4.0968,-4.0962,-4.0965,-4.09,-4.0962,-4.0962,-4.0961,-4.0961,-4.0961,-4.0662,-4.0683,-4.0707,-4.0736,-4.0755,-4.0776,-4.0798,-4.0812,-4.0838,-4.087,-4.0875,-4.0907,-4.093,-4.0969,-4.0983,-4.1009,-4.1003,-4.1012,-4.1014,-4.1016,-4.1017,-4.096,-4.1014,-4.1014,-4.1014,-4.1014,-4.1014,0,-4.0709,-4.0725,-4.0752,-4.0783,-4.0806,-4.0806,-4.0831,-4.085,-4.0878,-4.09,-4.0924,-4.096,-4.0988,-4.1007,-4.1035,-4.1052,-4.1053,-4.1059,-4.1057,-4.106,-4.1021,-4.1012,-4.1058,-4.1058,-4.1058,-4.1058,-4.1058,-4.1058,-4.0736,-4.0772,-4.0781,-4.0827,-4.0843,-4.0875,-4.0889,-4.0909,-4.0926,-4.0966,-4.099,-4.1002,-4.1023,-4.1053,-4.1079,-4.1084,-4.1094,-4.1101,-4.1105,-4.1068,-4.1063,-4.1059,-4.105,-4.1103,-4.1103,-4.1142,-4.1142,-4.1142]}]]